CZ-4 DEB, 26436

Orbit data source: Space-Track

CZ-4 DEB, 26436 is space debris in SSO originally from a launch on Thu, 14 Oct 1999 UTC launched from the Taiyaun Space Center, China (TSC). Debris objects in space refer to the collection of defunct objects orbiting the Earth. Examples of debris include non-operational satellites, rocket bodies, and fragments generated from explosions, collisions, or faulty payload assembly.

Loading next visibility...
Identifier
26436, 1999-057KH
Orbit
SSO
Country
Flag of CNCN / PRC
Related business
Manufacturer
Unknown
Mission
Spacecraft
Bus & Motor
Unknown
Mass
Unknown
Launch date (UTC)
1999-10-14 (26 years ago)
Launch vehicle
Unknown
Launch site
Taiyaun Space Center, China (TSC)
Object type
Payload
Rocket body
Debris
Shape & HBR
Unknown shape, 0.1 m
Radar Cross Section
Small (<0.1 m²)

Expand to show TLE details & history
Last TLE update: 21 hours ago

TLE from 21 hours ago
0 CZ-4 DEB
1 26436U 99057KH  26036.76869330  .00001065  00000-0  11760-2 0  9999
2 26436  99.5248 125.9004 0703581 181.2109 178.7316 12.98103385585794
Epoch: 2026-02-05T18:26Z
TLE epoch observation values (Epoch: 2026-02-05T18:26:55.101Z)
Latitude
-0.00003°
Longitude
73.25464°
Altitude
1,810.321 km
Speed
6.728 km/s
True Right ascension
08h 23m 36s
True Declination
0° 00' 00"
Sunlit
Object was in full shadow at epoch
Visualization orbit readout
Latitude
Unknown
Longitude
Unknown
Altitude
Unknown
Speed
Unknown
Apparent Right ascension
Unknown
Apparent Declination
Unknown
Sunlit
N/A
Visualization observer readout
Local Sidereal Time
17:42:36
Azimuth
Unknown
Elevation
Unknown
Doppler factor
Unknown
Orbital elements
Apogee altitude
1,804.761 km
Perigee altitude
728.985 km
Semi-major axis
7,645.01 km
Eccentricity
0.07036
Inclination
99.5248°
RAAN
125.9004°
Arg. of periapsis
181.2109°
True anomaly
178.8956°
Mean anomaly
178.7316°
Eccentric anomaly
178.81497°
Mean motion
3.24695 °/min
Orbital period
110.87 mins
BSTAR
0.001176
Loading maneuver chart data...
Computing Atmospheric mass density...
Loading historical data...
Loading historical data...
Loading historical data...
Loading historical data...
Loading historical data...
Loading historical data...
Loading historical data...

Documentation

Showing up to 5 results
|